Time,TemperatureF,DewpointF,PressureIn,WindDirection,WindDirectionDegrees,WindSpeedMPH,WindSpeedGustMPH,Humidity,HourlyPrecipIn,Conditions,Clouds,dailyrainin,SoftwareType,DateUTC
2013-04-09 00:03:00,55.0,41.0,30.03,SE,136,2.0,6.0,59,0.00,,,0.00,,2013-04-09 04:03:00,
2013-04-09 00:13:00,55.0,41.0,30.03,SE,136,2.0,6.0,59,0.00,,,0.00,,2013-04-09 04:13:00,
2013-04-09 00:23:00,54.0,41.0,30.03,SSW,211,1.0,3.0,61,0.00,,,0.00,,2013-04-09 04:23:00,
2013-04-09 00:32:00,54.0,41.0,30.03,SSW,205,1.0,5.0,61,0.00,,,0.00,,2013-04-09 04:32:00,
2013-04-09 00:42:00,54.0,41.0,30.03,SSW,205,1.0,5.0,61,0.00,,,0.00,,2013-04-09 04:42:00,
2013-04-09 00:53:00,54.0,41.0,30.03,SSW,205,1.0,5.0,61,0.00,,,0.00,,2013-04-09 04:53:00,
2013-04-09 01:02:00,53.0,42.0,30.02,South,169,1.0,3.0,65,0.00,,,0.00,,2013-04-09 05:02:00,
2013-04-09 01:12:00,53.0,42.0,30.02,SSW,202,0.0,5.0,67,0.00,,,0.00,,2013-04-09 05:12:00,
2013-04-09 01:22:00,53.0,42.0,30.02,SSW,202,0.0,5.0,67,0.00,,,0.00,,2013-04-09 05:22:00,
2013-04-09 01:32:00,53.0,43.0,30.01,South,175,1.0,3.0,69,0.00,,,0.00,,2013-04-09 05:32:00,
2013-04-09 01:43:00,53.0,43.0,30.00,South,190,1.0,4.0,70,0.00,,,0.00,,2013-04-09 05:43:00,
2013-04-09 01:52:00,53.0,43.0,30.00,South,190,1.0,4.0,70,0.00,,,0.00,,2013-04-09 05:52:00,
2013-04-09 02:02:00,53.0,44.0,30.00,South,175,0.0,3.0,72,0.00,,,0.00,,2013-04-09 06:02:00,
2013-04-09 02:12:00,52.0,44.0,29.98,South,169,0.0,6.0,74,0.00,,,0.00,,2013-04-09 06:12:00,
2013-04-09 02:22:00,52.0,44.0,29.98,South,169,0.0,6.0,74,0.00,,,0.00,,2013-04-09 06:22:00,
2013-04-09 02:32:00,52.0,44.0,29.98,South,169,0.0,1.0,74,0.00,,,0.00,,2013-04-09 06:32:00,
2013-04-09 02:42:00,52.0,44.0,29.98,South,169,0.0,1.0,74,0.00,,,0.00,,2013-04-09 06:42:00,
2013-04-09 02:52:00,52.0,44.0,29.98,South,169,0.0,1.0,74,0.00,,,0.00,,2013-04-09 06:52:00,
2013-04-09 03:02:00,52.0,45.0,29.96,SSE,157,0.0,7.0,77,0.00,,,0.00,,2013-04-09 07:02:00,
2013-04-09 03:13:00,52.0,45.0,29.96,SSE,157,0.0,7.0,77,0.00,,,0.00,,2013-04-09 07:13:00,
2013-04-09 03:22:00,51.0,45.0,29.95,SSE,155,1.0,3.0,79,0.00,,,0.00,,2013-04-09 07:22:00,
2013-04-09 03:32:00,50.0,44.0,29.95,SW,232,1.0,4.0,80,0.00,,,0.00,,2013-04-09 07:32:00,
2013-04-09 03:42:00,50.0,44.0,29.95,SW,232,1.0,4.0,80,0.00,,,0.00,,2013-04-09 07:42:00,
2013-04-09 03:53:00,50.0,44.0,29.94,ESE,111,0.0,2.0,81,0.00,,,0.00,,2013-04-09 07:53:00,
2013-04-09 04:03:00,50.0,45.0,29.94,ESE,111,0.0,0.0,82,0.00,,,0.00,,2013-04-09 08:03:00,
2013-04-09 04:12:00,50.0,45.0,29.94,ESE,111,0.0,0.0,82,0.00,,,0.00,,2013-04-09 08:12:00,
2013-04-09 04:22:00,50.0,45.0,29.94,ESE,112,0.0,0.0,82,0.00,,,0.00,,2013-04-09 08:22:00,
2013-04-09 04:32:00,50.0,45.0,29.94,ESE,112,0.0,0.0,83,0.00,,,0.00,,2013-04-09 08:32:00,
2013-04-09 04:42:00,50.0,45.0,29.94,ESE,112,0.0,0.0,83,0.00,,,0.00,,2013-04-09 08:42:00,
2013-04-09 04:52:00,49.0,44.0,29.93,ESE,112,0.0,0.0,83,0.00,,,0.00,,2013-04-09 08:52:00,
2013-04-09 05:02:00,49.0,44.0,29.94,ESE,111,0.0,0.0,84,0.00,,,0.00,,2013-04-09 09:02:00,
2013-04-09 05:12:00,48.0,43.0,29.93,ESE,111,0.0,0.0,84,0.00,,,0.00,,2013-04-09 09:12:00,
2013-04-09 05:22:00,48.0,43.0,29.93,ESE,111,0.0,0.0,84,0.00,,,0.00,,2013-04-09 09:22:00,
2013-04-09 05:33:00,48.0,44.0,29.94,ESE,111,0.0,0.0,85,0.00,,,0.00,,2013-04-09 09:33:00,
2013-04-09 05:43:00,48.0,44.0,29.94,ESE,111,0.0,0.0,85,0.00,,,0.00,,2013-04-09 09:43:00,
2013-04-09 05:53:00,48.0,44.0,29.94,ESE,112,0.0,0.0,85,0.00,,,0.00,,2013-04-09 09:53:00,
2013-04-09 06:03:00,48.0,44.0,29.94,ESE,112,0.0,0.0,86,0.00,,,0.00,,2013-04-09 10:03:00,
2013-04-09 06:13:00,48.0,44.0,29.94,ESE,112,0.0,0.0,86,0.00,,,0.00,,2013-04-09 10:13:00,
2013-04-09 06:23:00,48.0,44.0,29.94,SW,229,0.0,3.0,87,0.00,,,0.00,,2013-04-09 10:23:00,
2013-04-09 06:33:00,48.0,44.0,29.94,SW,229,0.0,1.0,87,0.00,,,0.00,,2013-04-09 10:33:00,
2013-04-09 06:43:00,48.0,44.0,29.94,SW,229,0.0,1.0,87,0.00,,,0.00,,2013-04-09 10:43:00,
2013-04-09 06:53:00,48.0,44.0,29.95,SW,229,0.0,1.0,87,0.00,,,0.00,,2013-04-09 10:53:00,
2013-04-09 07:02:00,49.0,45.0,29.94,West,270,0.0,3.0,87,0.00,,,0.00,,2013-04-09 11:02:00,
2013-04-09 07:12:00,49.0,45.0,29.94,West,270,0.0,3.0,87,0.00,,,0.00,,2013-04-09 11:12:00,
2013-04-09 07:22:00,49.0,45.0,29.94,SW,221,1.0,3.0,87,0.00,,,0.00,,2013-04-09 11:22:00,
2013-04-09 07:32:00,50.0,46.0,29.94,WNW,302,2.0,6.0,86,0.00,,,0.00,,2013-04-09 11:32:00,
2013-04-09 07:42:00,50.0,46.0,29.94,WNW,302,2.0,6.0,86,0.00,,,0.00,,2013-04-09 11:42:00,
2013-04-09 07:52:00,51.0,46.0,29.95,WNW,289,1.0,7.0,83,0.00,,,0.00,,2013-04-09 11:52:00,
2013-04-09 08:02:00,52.0,47.0,29.94,WSW,256,1.0,6.0,82,0.00,,,0.00,,2013-04-09 12:02:00,
2013-04-09 08:12:00,52.0,47.0,29.94,WSW,256,1.0,6.0,82,0.00,,,0.00,,2013-04-09 12:12:00,
2013-04-09 08:22:00,53.0,47.0,29.94,WSW,237,1.0,8.0,80,0.00,,,0.00,,2013-04-09 12:22:00,
2013-04-09 08:32:00,56.0,49.0,29.94,NW,323,2.0,5.0,76,0.00,,,0.00,,2013-04-09 12:32:00,
2013-04-09 08:42:00,56.0,49.0,29.94,NW,323,2.0,5.0,76,0.00,,,0.00,,2013-04-09 12:42:00,
2013-04-09 08:53:00,58.0,49.0,29.93,SW,223,3.0,9.0,71,0.00,,,0.00,,2013-04-09 12:53:00,
2013-04-09 09:03:00,61.0,49.0,29.94,WSW,252,2.0,10.0,65,0.00,,,0.00,,2013-04-09 13:03:00,
2013-04-09 09:12:00,61.0,49.0,29.94,WSW,252,2.0,10.0,65,0.00,,,0.00,,2013-04-09 13:12:00,
2013-04-09 09:23:00,63.0,49.0,29.93,SSW,211,3.0,8.0,60,0.00,,,0.00,,2013-04-09 13:23:00,
2013-04-09 09:33:00,66.0,51.0,29.94,SSW,198,3.0,8.0,58,0.00,,,0.00,,2013-04-09 13:33:00,
2013-04-09 09:43:00,66.0,51.0,29.94,SSW,198,3.0,8.0,58,0.00,,,0.00,,2013-04-09 13:43:00,
2013-04-09 09:53:00,67.0,50.0,29.94,SW,221,3.0,10.0,55,0.00,,,0.00,,2013-04-09 13:53:00,
2013-04-09 10:03:00,68.0,49.0,29.94,West,271,4.0,11.0,51,0.00,,,0.00,,2013-04-09 14:03:00,
2013-04-09 10:12:00,68.0,49.0,29.94,West,271,4.0,11.0,51,0.00,,,0.00,,2013-04-09 14:12:00,
2013-04-09 10:22:00,71.0,51.0,29.94,NW,325,1.0,10.0,49,0.00,,,0.00,,2013-04-09 14:22:00,
2013-04-09 10:32:00,73.0,50.0,29.94,NW,311,2.0,13.0,44,0.00,,,0.00,,2013-04-09 14:32:00,
2013-04-09 10:43:00,73.0,50.0,29.94,NW,311,2.0,13.0,44,0.00,,,0.00,,2013-04-09 14:43:00,
2013-04-09 10:52:00,75.0,48.0,29.94,NW,325,5.0,12.0,39,0.00,,,0.00,,2013-04-09 14:52:00,
2013-04-09 11:02:00,75.0,46.0,29.95,West,265,7.0,19.0,36,0.00,,,0.00,,2013-04-09 15:02:00,
2013-04-09 11:13:00,75.0,46.0,29.95,West,265,7.0,19.0,36,0.00,,,0.00,,2013-04-09 15:13:00,
2013-04-09 11:23:00,77.0,48.0,29.95,NW,314,4.0,13.0,36,0.00,,,0.00,,2013-04-09 15:23:00,
2013-04-09 11:33:00,77.0,46.0,29.94,NW,304,7.0,14.0,33,0.00,,,0.00,,2013-04-09 15:33:00,
2013-04-09 11:43:00,77.0,46.0,29.94,NW,304,7.0,14.0,33,0.00,,,0.00,,2013-04-09 15:43:00,
2013-04-09 11:54:00,78.0,46.0,29.95,WNW,300,3.0,11.0,32,0.00,,,0.00,,2013-04-09 15:54:00,
2013-04-09 12:03:00,78.0,46.0,29.95,NNW,348,5.0,17.0,32,0.00,,,0.00,,2013-04-09 16:03:00,
2013-04-09 12:13:00,78.0,46.0,29.95,NNW,348,5.0,17.0,32,0.00,,,0.00,,2013-04-09 16:13:00,
2013-04-09 12:23:00,79.0,46.0,29.95,West,276,3.0,20.0,31,0.00,,,0.00,,2013-04-09 16:23:00,
2013-04-09 12:33:00,78.0,43.0,29.94,NNW,337,5.0,13.0,29,0.00,,,0.00,,2013-04-09 16:33:00,
2013-04-09 12:42:00,78.0,43.0,29.94,NNW,337,5.0,13.0,29,0.00,,,0.00,,2013-04-09 16:42:00,
2013-04-09 12:54:00,79.0,43.0,29.95,SW,233,5.0,16.0,28,0.00,,,0.00,,2013-04-09 16:54:00,
2013-04-09 13:02:00,79.0,43.0,29.96,NW,317,3.0,18.0,28,0.00,,,0.00,,2013-04-09 17:02:00,
2013-04-09 13:13:00,79.0,43.0,29.96,NW,317,3.0,18.0,28,0.00,,,0.00,,2013-04-09 17:13:00,
2013-04-09 13:23:00,79.0,41.0,29.95,NNW,345,4.0,12.0,26,0.00,,,0.00,,2013-04-09 17:23:00,
2013-04-09 13:32:00,78.0,40.0,29.95,NW,318,4.0,10.0,26,0.00,,,0.00,,2013-04-09 17:32:00,
2013-04-09 13:43:00,78.0,40.0,29.95,NW,318,4.0,10.0,26,0.00,,,0.00,,2013-04-09 17:43:00,
2013-04-09 13:54:00,79.0,41.0,29.96,NNW,339,5.0,13.0,26,0.00,,,0.00,,2013-04-09 17:54:00,
2013-04-09 14:02:00,80.0,41.0,29.97,WSW,238,5.0,12.0,25,0.00,,,0.00,,2013-04-09 18:02:00,
2013-04-09 14:13:00,80.0,41.0,29.97,WSW,238,5.0,12.0,25,0.00,,,0.00,,2013-04-09 18:13:00,
2013-04-09 14:23:00,79.0,41.0,29.97,South,180,3.0,10.0,26,0.00,,,0.00,,2013-04-09 18:23:00,
2013-04-09 14:33:00,79.0,42.0,29.98,West,281,3.0,12.0,27,0.00,,,0.00,,2013-04-09 18:33:00,
2013-04-09 14:43:00,79.0,42.0,29.98,West,281,3.0,12.0,27,0.00,,,0.00,,2013-04-09 18:43:00,
2013-04-09 14:53:00,80.0,41.0,29.97,WNW,302,5.0,11.0,25,0.00,,,0.00,,2013-04-09 18:53:00,
2013-04-09 15:03:00,80.0,41.0,29.97,WNW,302,5.0,11.0,25,0.00,,,0.00,,2013-04-09 19:03:00,
2013-04-09 15:12:00,80.0,41.0,29.97,WNW,302,5.0,11.0,25,0.00,,,0.00,,2013-04-09 19:12:00,
2013-04-09 15:22:00,80.0,41.0,29.97,WNW,302,5.0,11.0,25,0.00,,,0.00,,2013-04-09 19:22:00,
2013-04-09 15:32:00,79.0,36.0,29.97,WSW,249,5.0,15.0,21,0.00,,,0.00,,2013-04-09 19:32:00,
2013-04-09 15:42:00,79.0,36.0,29.97,WSW,249,5.0,15.0,21,0.00,,,0.00,,2013-04-09 19:42:00,
2013-04-09 15:53:00,77.0,36.0,29.97,WNW,295,4.0,15.0,23,0.00,,,0.00,,2013-04-09 19:53:00,
2013-04-09 16:02:00,77.0,38.0,29.97,NNW,336,2.0,9.0,25,0.00,,,0.00,,2013-04-09 20:02:00,
2013-04-09 16:12:00,76.0,39.0,29.97,NW,325,3.0,7.0,26,0.00,,,0.00,,2013-04-09 20:12:00,
2013-04-09 16:22:00,76.0,39.0,29.97,NW,325,3.0,7.0,26,0.00,,,0.00,,2013-04-09 20:22:00,
2013-04-09 16:33:00,77.0,38.0,29.97,SSE,160,3.0,8.0,25,0.00,,,0.00,,2013-04-09 20:33:00,
2013-04-09 16:43:00,77.0,38.0,29.97,SSE,160,3.0,8.0,25,0.00,,,0.00,,2013-04-09 20:43:00,
2013-04-09 16:53:00,76.0,39.0,29.96,NW,323,4.0,12.0,26,0.00,,,0.00,,2013-04-09 20:53:00,
2013-04-09 17:02:00,74.0,37.0,29.96,West,278,4.0,8.0,26,0.00,,,0.00,,2013-04-09 21:02:00,
2013-04-09 17:13:00,74.0,37.0,29.96,West,278,4.0,8.0,26,0.00,,,0.00,,2013-04-09 21:13:00,
2013-04-09 17:22:00,74.0,37.0,29.96,West,278,4.0,8.0,26,0.00,,,0.00,,2013-04-09 21:22:00,
2013-04-09 17:33:00,73.0,36.0,29.97,North,360,3.0,10.0,26,0.00,,,0.00,,2013-04-09 21:33:00,
2013-04-09 17:42:00,73.0,36.0,29.97,North,360,3.0,10.0,26,0.00,,,0.00,,2013-04-09 21:42:00,
2013-04-09 17:53:00,72.0,35.0,29.97,NW,313,1.0,10.0,26,0.00,,,0.00,,2013-04-09 21:53:00,
2013-04-09 18:03:00,72.0,35.0,29.97,West,272,1.0,7.0,26,0.00,,,0.00,,2013-04-09 22:03:00,
2013-04-09 18:13:00,71.0,35.0,29.98,WNW,290,4.0,8.0,27,0.00,,,0.00,,2013-04-09 22:13:00,
2013-04-09 18:23:00,71.0,35.0,29.98,WNW,290,4.0,8.0,27,0.00,,,0.00,,2013-04-09 22:23:00,
2013-04-09 18:33:00,71.0,36.0,29.98,SW,224,1.0,7.0,28,0.00,,,0.00,,2013-04-09 22:33:00,
2013-04-09 18:42:00,71.0,36.0,29.98,SW,224,1.0,7.0,28,0.00,,,0.00,,2013-04-09 22:42:00,
2013-04-09 18:54:00,70.0,37.0,29.98,WSW,248,1.0,4.0,30,0.00,,,0.00,,2013-04-09 22:54:00,
2013-04-09 19:03:00,70.0,37.0,29.99,NW,322,1.0,3.0,30,0.00,,,0.00,,2013-04-09 23:03:00,
2013-04-09 19:13:00,69.0,35.0,29.98,NNW,331,0.0,3.0,29,0.00,,,0.00,,2013-04-09 23:13:00,
2013-04-09 19:23:00,69.0,35.0,29.98,NNW,331,0.0,3.0,29,0.00,,,0.00,,2013-04-09 23:23:00,
2013-04-09 19:32:00,68.0,36.0,29.98,NNW,329,0.0,3.0,31,0.00,,,0.00,,2013-04-09 23:32:00,
2013-04-09 19:42:00,68.0,36.0,29.98,NNW,329,0.0,3.0,31,0.00,,,0.00,,2013-04-09 23:42:00,
2013-04-09 19:53:00,67.0,35.0,29.99,NNW,329,0.0,0.0,31,0.00,,,0.00,,2013-04-09 23:53:00,
2013-04-09 20:03:00,67.0,35.0,29.99,NNW,329,0.0,0.0,31,0.00,,,0.00,,2013-04-10 00:03:00,
2013-04-09 20:12:00,67.0,35.0,29.99,NNW,329,0.0,0.0,31,0.00,,,0.00,,2013-04-10 00:12:00,
2013-04-09 20:23:00,65.0,39.0,30.00,NE,49,1.0,5.0,38,0.00,,,0.00,,2013-04-10 00:23:00,
2013-04-09 20:33:00,64.0,39.0,30.00,NNE,21,1.0,4.0,40,0.00,,,0.00,,2013-04-10 00:33:00,
2013-04-09 20:42:00,64.0,39.0,30.00,NNE,21,1.0,4.0,40,0.00,,,0.00,,2013-04-10 00:42:00,
2013-04-09 20:53:00,64.0,40.0,30.00,North,360,0.0,5.0,41,0.00,,,0.00,,2013-04-10 00:53:00,
2013-04-09 21:02:00,63.0,40.0,30.00,North,9,1.0,3.0,42,0.00,,,0.00,,2013-04-10 01:02:00,
2013-04-09 21:12:00,63.0,40.0,30.00,ENE,66,1.0,4.0,43,0.00,,,0.00,,2013-04-10 01:12:00,
2013-04-09 21:23:00,63.0,40.0,30.00,ENE,66,1.0,4.0,43,0.00,,,0.00,,2013-04-10 01:23:00,
2013-04-09 21:32:00,62.0,40.0,30.01,NE,42,0.0,2.0,44,0.00,,,0.00,,2013-04-10 01:32:00,
2013-04-09 21:43:00,62.0,40.0,30.01,NE,42,0.0,2.0,44,0.00,,,0.00,,2013-04-10 01:43:00,
2013-04-09 21:53:00,61.0,40.0,30.01,NE,42,0.0,2.0,45,0.00,,,0.00,,2013-04-10 01:53:00,
2013-04-09 22:02:00,60.0,40.0,30.01,NE,42,0.0,0.0,47,0.00,,,0.00,,2013-04-10 02:02:00,
2013-04-09 22:13:00,60.0,40.0,30.01,NE,42,0.0,0.0,47,0.00,,,0.00,,2013-04-10 02:13:00,
2013-04-09 22:22:00,59.0,40.0,30.01,NE,42,0.0,0.0,49,0.00,,,0.00,,2013-04-10 02:22:00,
2013-04-09 22:32:00,58.0,40.0,29.99,ENE,60,1.0,2.0,51,0.00,,,0.00,,2013-04-10 02:32:00,
2013-04-09 22:43:00,58.0,40.0,29.99,ENE,60,1.0,2.0,51,0.00,,,0.00,,2013-04-10 02:43:00,
2013-04-09 22:53:00,58.0,40.0,29.97,ESE,105,0.0,2.0,52,0.00,,,0.00,,2013-04-10 02:53:00,
2013-04-09 23:03:00,58.0,39.0,29.96,East,96,0.0,2.0,50,0.00,,,0.00,,2013-04-10 03:03:00,
2013-04-09 23:12:00,58.0,39.0,29.96,East,96,0.0,2.0,50,0.00,,,0.00,,2013-04-10 03:12:00,
2013-04-09 23:22:00,58.0,39.0,29.96,East,97,0.0,1.0,50,0.00,,,0.00,,2013-04-10 03:22:00,
2013-04-09 23:33:00,58.0,40.0,29.95,East,96,0.0,1.0,51,0.00,,,0.00,,2013-04-10 03:33:00,
2013-04-09 23:43:00,58.0,40.0,29.95,East,96,0.0,1.0,51,0.00,,,0.00,,2013-04-10 03:43:00,
2013-04-09 23:53:00,57.0,40.0,29.96,East,96,0.0,1.0,52,0.00,,,0.00,,2013-04-10 03:53:00,